Location: Banska Bystrica
(0.0000°N, 19.1500°E)
Time: 09:26:37
(UTC+01:00)

Cosmos 2098 Rocket - Pass Details

Date: 19 February 2019
Orbit: 367 x 1196 km, 82.9° (Epoch: 21 March)

Event Time Altitude Azimuth Distance (km) Brightness Sun altitude
Rises 19:03:54 0° 3° (N) 3,347 6.7 -16.3°
Reaches altitude 10° 19:06:35 10° 8° (N) 2,273 5.8 -17.0°
Maximum altitude 19:11:29 55° 85° (E) 761 3.1 -18.2°
Drops below altitude 10° 19:15:21 10° 163° (SSE) 1,801 5.4 -19.1°
Sets 19:17:17 0° 168° (SSE) 2,589 6.3 -19.6°
